Date String (YYYY-MM-DD hh:mm:ss) UTC,Instrument flags,absolute air pressure of the measurement (hPa),sample flow rate (lpm),inlet stack bypass flow (lpm),air temperature of the measurement (°C),ambient temperature measured by the external sensor (°C),aerosol sample conditioner tube jacket temperature (°C),OPC LED temperature (°C),internal box temperature (°C),relative humidity of the measurement (%),span deviation,mass concentration of particles derived from Lorenz-Mie calculation of OPC scattering (μg/m³),mass concentration of particles derived from Lorenz-Mie calculation of OPC scattering (μg/m³),mass concentration of particles derived from Lorenz-Mie calculation of OPC scattering (μg/m³)
DateTimeUTC,F1_M11,P_M11,Q1_M11,Q2_M11,T1_M11,T2_M11,T3_M11,T4_M11,T5_M11,U1_M11,ZSPAN_M11,X0_M11,X2_M11,X1_M11
2023-10-16 13:00:00,SystemResetWarning,0838.8,5.00,000.00,027.4,025.8,000.0,035.8,029.0,14.0,0000.0,0004.12,0002.60,0002.21
2023-10-16 13:01:00,SystemResetWarning,0838.8,5.01,000.00,027.4,025.8,000.0,035.8,029.0,14.0,0000.0,0004.67,0002.59,0002.18
2023-10-16 13:02:00,SystemResetWarning,0838.8,5.00,000.00,027.4,025.8,000.0,035.8,029.0,14.0,0000.0,0005.16,0002.57,0002.16
2023-10-16 13:03:00,SystemResetWarning,0838.8,5.00,000.00,027.4,025.8,000.0,035.8,029.0,14.0,0000.0,0004.99,0002.55,0002.13
2023-10-16 13:04:00,SystemResetWarning,0838.8,4.99,000.00,027.4,025.8,000.0,035.8,029.0,14.1,0000.0,0005.95,0002.57,0002.13
2023-10-16 13:05:00,SystemResetWarning,0838.8,4.99,000.00,027.3,025.8,000.0,035.8,029.0,14.1,0000.0,0006.04,0002.58,0002.14
2023-10-16 13:06:00,SystemResetWarning,0838.8,5.00,000.00,027.3,025.8,000.0,035.8,028.9,14.1,0000.0,0006.24,0002.62,0002.16
2023-10-16 13:07:00,SystemResetWarning,0838.8,5.00,000.00,027.3,025.8,000.0,035.8,028.9,14.1,0000.0,0006.18,0002.61,0002.16
2023-10-16 13:08:00,SystemResetWarning,0838.8,5.00,000.00,027.3,025.7,000.0,035.8,028.9,14.1,0000.0,0006.28,0002.64,0002.18
2023-10-16 13:09:00,SystemResetWarning,0838.8,5.00,000.00,027.3,025.7,000.0,035.8,028.9,14.1,0000.0,0006.32,0002.61,0002.18
2023-10-16 13:10:00,SystemResetWarning,0838.8,4.99,000.00,027.3,025.7,000.0,035.8,028.9,14.1,0000.0,0006.30,0002.60,0002.17
2023-10-16 13:11:00,SystemResetWarning,0838.9,5.00,000.00,027.3,025.7,000.0,035.8,028.9,14.2,0000.0,0006.51,0002.57,0002.16
2023-10-16 13:12:00,SystemResetWarning,0838.8,5.01,000.00,027.3,025.7,000.0,035.8,028.9,14.2,0000.0,0006.17,0002.56,0002.17
2023-10-16 13:13:00,SystemResetWarning,0838.8,5.01,000.00,027.3,025.7,000.0,035.8,028.9,14.2,0000.0,0005.69,0002.56,0002.18
2023-10-16 13:14:00,SystemResetWarning,0838.8,5.00,000.00,027.3,025.7,000.0,035.7,028.9,14.3,0000.0,0005.56,0002.54,0002.19
2023-10-16 13:15:00,SystemResetWarning,0838.8,5.00,000.00,027.3,025.7,000.0,035.8,029.0,14.2,0000.0,0004.73,0002.54,0002.19
2023-10-16 13:16:00,SystemResetWarning,0838.9,4.99,000.00,027.3,025.7,000.0,035.8,029.0,14.3,0000.0,0004.75,0002.54,0002.19
2023-10-16 13:17:00,SystemResetWarning,0838.8,5.00,000.00,027.3,025.7,000.0,035.8,029.0,14.2,0000.0,0004.60,0002.52,0002.17
2023-10-16 13:18:00,SystemResetWarning,0838.8,5.00,000.00,027.3,025.7,000.0,035.8,029.0,14.2,0000.0,0005.19,0002.54,0002.17
2023-10-16 13:19:00,SystemResetWarning,0838.8,5.00,000.00,027.3,025.7,000.0,035.8,029.0,14.2,0000.0,0006.36,0002.52,0002.17
2023-10-16 13:20:00,SystemResetWarning,0838.9,5.00,000.00,027.3,025.8,000.0,035.8,029.0,14.2,0000.0,0006.18,0002.53,0002.17
2023-10-16 13:21:00,SystemResetWarning,0838.9,5.00,000.00,027.3,025.8,000.0,035.7,029.0,14.2,0000.0,0006.15,0002.54,0002.18
2023-10-16 13:22:00,SystemResetWarning,0838.9,5.00,000.00,027.3,025.8,000.0,035.7,029.0,14.2,0000.0,0006.09,0002.52,0002.17
2023-10-16 13:23:00,SystemResetWarning,0838.9,5.01,000.00,027.3,025.8,000.0,035.7,029.0,14.3,0000.0,0006.81,0002.51,0002.18
2023-10-16 13:24:00,SystemResetWarning,0838.9,5.00,000.00,027.3,025.8,000.0,035.7,029.0,14.3,0000.0,0006.79,0002.52,0002.19
2023-10-16 13:25:00,SystemResetWarning,0838.9,5.00,000.00,027.3,025.8,000.0,035.7,029.0,14.2,0000.0,0006.76,0002.51,0002.19
2023-10-16 13:26:00,SystemResetWarning,0838.9,5.00,000.00,027.3,025.8,000.0,035.7,029.0,14.3,0000.0,0006.58,0002.48,0002.19
2023-10-16 13:27:00,SystemResetWarning,0838.8,4.99,000.00,027.3,025.8,000.0,035.7,029.0,14.3,0000.0,0006.46,0002.47,0002.19
2023-10-16 13:28:00,SystemResetWarning,0839.0,4.99,000.00,027.3,025.8,000.0,035.7,029.0,14.3,0000.0,0006.35,0002.44,0002.19
2023-10-16 13:29:00,SystemResetWarning,0838.9,5.00,000.00,027.3,025.8,000.0,035.7,029.0,14.4,0000.0,0006.50,0002.42,0002.19
2023-10-16 13:30:00,SystemResetWarning,0838.9,5.00,000.00,027.3,025.8,000.0,035.7,029.0,14.5,0000.0,0005.59,0002.39,0002.20
2023-10-16 13:31:00,SystemResetWarning,0839.0,5.01,000.00,027.3,025.8,000.0,035.7,029.0,14.5,0000.0,0005.73,0002.43,0002.21
2023-10-16 13:32:00,SystemResetWarning,0839.0,5.02,000.00,027.3,025.8,000.0,035.7,029.0,14.6,0000.0,0005.74,0002.45,0002.23
2023-10-16 13:33:00,SystemResetWarning,0839.0,4.98,000.00,027.3,025.8,000.0,035.7,029.0,14.6,0000.0,0005.55,0002.44,0002.23
2023-10-16 13:34:00,SystemResetWarning,0839.0,4.99,000.00,027.3,025.8,000.0,035.7,029.0,14.6,0000.0,0004.18,0002.41,0002.22
2023-10-16 13:35:00,SystemResetWarning,0839.0,5.01,000.00,027.3,025.8,000.0,035.7,029.0,14.6,0000.0,0004.36,0002.44,0002.21
2023-10-16 13:36:00,SystemResetWarning,0839.1,5.00,000.00,027.3,025.8,000.0,035.7,028.9,14.5,0000.0,0004.64,0002.47,0002.21
2023-10-16 13:37:00,SystemResetWarning,0839.1,5.01,000.00,027.3,025.8,000.0,035.7,028.9,14.5,0000.0,0004.94,0002.48,0002.20
2023-10-16 13:38:00,SystemResetWarning,0839.1,5.01,000.00,027.3,025.8,000.0,035.7,029.0,14.6,0000.0,0004.90,0002.46,0002.19
2023-10-16 13:39:00,SystemResetWarning,0839.1,5.00,000.00,027.3,025.8,000.0,035.7,029.0,14.6,0000.0,0004.94,0002.48,0002.20
2023-10-16 13:40:00,SystemResetWarning,0839.1,5.00,000.00,027.3,025.8,000.0,035.7,029.0,14.6,0000.0,0004.78,0002.52,0002.22
2023-10-16 13:41:00,SystemResetWarning,0839.1,5.00,000.00,027.3,025.8,000.0,035.7,029.0,14.7,0000.0,0004.32,0002.52,0002.23
2023-10-16 13:42:00,SystemResetWarning,0839.1,5.00,000.00,027.3,025.8,000.0,035.7,029.0,14.7,0000.0,0004.89,0002.53,0002.25
2023-10-16 13:43:00,SystemResetWarning,0839.1,5.00,000.00,027.3,025.8,000.0,035.7,029.0,14.7,0000.0,0005.53,0002.56,0002.26
2023-10-16 13:44:00,SystemResetWarning,0839.1,5.00,000.00,027.3,025.8,000.0,035.7,029.0,14.7,0000.0,0005.65,0002.62,0002.28
2023-10-16 13:45:00,SystemResetWarning,0839.1,5.00,000.00,027.3,025.8,000.0,035.7,029.0,14.7,0000.0,0005.80,0002.68,0002.33
2023-10-16 13:46:00,SystemResetWarning,0839.1,5.00,000.00,027.3,025.8,000.0,035.7,029.0,14.7,0000.0,0005.82,0002.73,0002.35
2023-10-16 13:47:00,SystemResetWarning,0839.1,5.00,000.00,027.3,025.8,000.0,035.7,029.0,14.7,0000.0,0005.88,0002.77,0002.39
2023-10-16 13:48:00,SystemResetWarning,0839.1,5.00,000.00,027.3,025.8,000.0,035.7,029.0,14.8,0000.0,0005.73,0002.83,0002.44
2023-10-16 13:49:00,SystemResetWarning,0839.1,5.00,000.00,027.3,025.8,000.0,035.7,029.0,14.8,0000.0,0005.93,0002.88,0002.48
2023-10-16 13:50:00,SystemResetWarning,0839.1,5.00,000.00,027.3,025.8,000.0,035.7,029.0,14.8,0000.0,0005.99,0002.90,0002.50
2023-10-16 13:51:00,SystemResetWarning,0839.1,5.00,000.00,027.3,025.8,000.0,035.7,029.0,14.7,0000.0,0005.95,0002.90,0002.52
2023-10-16 13:52:00,SystemResetWarning,0839.1,5.00,000.00,027.3,025.8,000.0,035.7,029.0,14.7,0000.0,0006.04,0002.95,0002.55
2023-10-16 13:53:00,SystemResetWarning,0839.1,5.00,000.00,027.3,025.8,000.0,035.7,029.0,14.7,0000.0,0005.84,0002.97,0002.58
2023-10-16 13:54:00,SystemResetWarning,0839.1,5.00,000.00,027.3,025.8,000.0,035.7,029.0,14.8,0000.0,0005.96,0002.97,0002.58
2023-10-16 13:55:00,SystemResetWarning,0839.1,5.00,000.00,027.3,025.8,000.0,035.7,029.0,14.8,0000.0,0006.25,0002.97,0002.59
2023-10-16 13:56:00,SystemResetWarning,0839.1,5.00,000.00,027.3,025.8,000.0,035.7,029.0,14.8,0000.0,0006.27,0003.01,0002.60
2023-10-16 13:57:00,SystemResetWarning,0839.1,5.00,000.00,027.3,025.8,000.0,035.7,029.0,14.8,0000.0,0006.29,0003.04,0002.60
2023-10-16 13:58:00,SystemResetWarning,0839.1,5.00,000.00,027.3,025.8,000.0,035.7,029.0,14.8,0000.0,0006.12,0003.02,0002.62
2023-10-16 13:59:00,SystemResetWarning,0839.1,5.00,000.00,027.3,025.8,000.0,035.7,029.0,14.7,0000.0,0005.96,0003.01,0002.61
